sat.trackr.live / text

‹ back to catalog

STARLINK-5727

NORAD 55587 · 2023-020U

PAYLOAD ACTIVE UNKNOWN

§ Identity

Operator
Country
US
Launch date
2023-02-12
Launch site
AFETR
Launch vehicle
Mass (kg)
RCS (m²)

Purposes: comms

External: N2YO · Heavens-Above · Gunter

§ Orbital elements

Epoch: 2026-09-20T13:21:37.930464Z

Period
94.27 min
Inclination
43.0051°
Eccentricity
0.0001791
Mean motion
15.27574665 rev/d
Perigee alt
481.8 km
Apogee alt
484.3 km
Semi-major
6,861.2 km
B*
-9.9876e-6
RAAN
344.7539°
Arg perigee
278.0223°
Mean anomaly
82.0426°
Rev number
19,871

§ Raw data

STARLINK-57271 55587U 23020U   26263.55668901 -.00000537  00000+0 -99876-5 0  99962 55587  43.0051 344.7539 0001791 278.0223  82.0426 15.27574665198718

JSON: /api/v1/satellites/55587 · /tle

For live sub-satellite position, see the globe view (requires WebGL).

§ Visibility from observer

Set your observer location to see the next 7 days of passes ≥ 10°. The values pass through the URL so the page stays shareable.

No JS? Fill the form by hand. The geolocation button needs JavaScript.